Regional Weather Roundup
Issued by NWS Cleveland, OH

Home | Current Version | Previous Version | Graphics & Text | Print | Product List | Glossary On
Versions: 1 2 3 4 5 6 7 8 9 10 11 12 13 14 15 16 17 18 19 20 21 22 23 24 25 26 27 28 29 30 31 32 33 34 35 36 37 38 39 40 41 42 43 44 45 46 47 48 49 50
000
ASUS41 KCLE 210500
RWRCLE
OHIO REGIONAL WEATHER ROUNDUP
NATIONAL WEATHER SERVICE WILMINGTON, OH
100 AM EDT THU AUG 21 2014

NOTE: "FAIR" INDICATES FEW OR NO CLOUDS BELOW 12,000 FEET WITH NO
SIGNIFICANT WEATHER AND/OR OBSTRUCTIONS TO VISIBILITY.

OHZ001>008-015>018-024>027-034-035-043-044-210600-
   NORTHWEST OHIO

CITY           SKY/WX    TMP DP  RH WIND       PRES   REMARKS
DEFIANCE       MOCLDY    70  67  90 SW3       29.99R
FINDLAY        PTCLDY    68  65  90 S6        29.98S
TOLEDO EXPRESS PTCLDY    67  65  93 CALM      29.97S
TOLEDO METCALF PTCLDY    69  64  84 CALM      29.98S
LIMA           CLEAR     72  65  78 SW6       30.01S
$$

OHZ009>014-019>023-028>033-038-089-210600-
   NORTHEAST OHIO

CITY           SKY/WX    TMP DP  RH WIND       PRES   REMARKS
CLE-HOPKINS    PTCLDY    69  66  90 SW7       30.00R
CLE-LAKEFRONT  PTCLDY    74  66  76 SW9       29.96S
CUY CO. ARPT   NOT AVBL
LORAIN-ELYRIA  PTCLDY    70  65  84 W5        29.99S
ASHTABULA      PTCLDY    66  64  93 SW3       29.98S
AKRON-CANTON   CLEAR     70  66  87 SW5       30.01S
WOOSTER        NOT AVBL
MANSFIELD      PTCLDY    69  65  86 CALM      30.02S
YOUNGSTOWN     PTCLDY    68  66  93 S6        29.99S
$$

OHZ042-051>053-060>062-070>072-077>081-210600-
  SOUTHWEST OHIO

CITY           SKY/WX    TMP DP  RH WIND       PRES   REMARKS
CINC-COVINGTON CLOUDY    71  68  90 SW5       30.04S
CINC-LUNKEN    CLOUDY    70  68  93 CALM      30.04S
HAMILTON       CLOUDY    72  69  90 CALM      30.04F
DAYTON         NOT AVBL
WRIGHT-PAT AFB CLEAR     69  66  90 S5        30.03S
DAYTON GENERAL PTCLDY    72  67  84 SW9       30.03F
WILMINGTON     PTCLDY    68  66  93 SW7       30.04S
$$

OHZ036-037-039>041-045>050-054>059-063>069-073>076-082>088-210600-
  CENTRAL AND SOUTHEAST OHIO

CITY           SKY/WX    TMP DP  RH WIND       PRES   REMARKS
COLUMBUS       CLEAR     77  66  68 W9        30.02R
OSU AIRPORT    CLEAR     72  67  84 W8        30.02R
BOLTON FIELD   NOT AVBL
RICKENBACK AFB NOT AVBL
NEWARK         CLEAR     66  65  96 CALM      30.02R FOG
MARION         PTCLDY    72  65  78 SW7       30.01S
LANCASTER      CLEAR     70  65  84 CALM      30.03R
ZANESVILLE     PTCLDY    67  65  93 CALM      30.02S FOG
NEW PHILLY     FOG       65  65 100 CALM      30.02R VSB 1/4
$$



USA.gov is the U.S. government's official web portal to all federal, state and local government web resources and services.